Vertical_Velocity
-4 -9 -6 -9 -4 -6 -5 -2 -0 -1 -1 -1 1 -1 0 -2 2 -1 -3 -0 3 7 4 3 2 -1 1 -2 2 8 -0 -4 -3 2 3 3 -0 0 0 4 4 3 -0 3 2
-6 -5 -4 -2 -6 2 2 1 -2 -2 4 1 -1 1 3 3 -2 -1 2 -0 7 11 8 6 -0 3 -1 3 5 -2 3 -4 2 2 3 -3 1 6 2 3 -1 -3 0 2 0
-5 -4 -2 -3 -0 -2 -1 -3 3 -0 0 -0 -2 -4 3 3 -2 -1 1 12 8 3 8 2 1 3 7 7 3 0 -0 1 2 -1 -1 -2 1 3 1 0 -1 -4 1 -2 4
-5 -5 -2 -2 2 2 -0 -2 4 4 3 0 5 -2 -0 3 -1 2 2 4 4 10 1 0 -1 4 5 -1 -2 0 1 2 2 2 3 4 7 2 2 2 3 -0 -4 -1 -0
-1 -1 0 -1 2 1 2 2 -0 1 -4 -1 3 -3 -4 -0 4 2 -4 3 6 8 3 1 -2 10 -2 0 4 0 3 3 4 2 -1 -2 2 3 3 -1 2 2 1 -0 -0
-0 3 0 -4 -1 2 -2 4 0 2 1 -3 1 -4 4 6 5 0 -4 4 2 0 -0 -3 16 8 3 4 1 -0 2 4 6 4 -1 -0 1 1 1 0 -1 -0 0 -1 -2
-3 -2 -2 1 2 -0 5 -2 0 -2 -3 1 3 7 7 -1 -3 4 9 9 5 11 13 6 -3 -4 3 8 2 -2 4 3 4 2 -1 1 1 3 0 -1 -1 -1 0 -2 -3
-2 -2 -2 2 -1 -3 1 1 -1 1 4 -2 -3 2 -3 4 4 4 2 3 1 6 2 -0 7 1 3 2 4 2 5 -1 2 1 -1 1 2 2 -2 2 4 4 0 -0 0
-0 -5 -4 -3 2 1 -4 -3 -2 -6 0 3 1 -1 1 2 -1 -3 7 -1 5 9 3 2 1 6 8 2 2 3 4 6 3 1 -0 -0 3 -1 0 0 1 1 -1 0 0
-2 0 -0 -9 -8 -8 -5 -3 -4 -4 -7 -0 0 8 -1 10 5 2 1 5 0 6 -1 0 6 8 3 -1 -12 -3 0 0 1 1 -0 0 1 1 1 1 -1 -1 -2 -2 -3
-4 -2 -2 -1 1 3 4 5 5 -0 4 -3 9 4 -3 1 3 5 8 -2 3 6 -2 10 1 4 -1 0 -5 -1 -2 -1 1 -1 0 1 1 0 -2 2 -2 -3 -2 -1 -0
0 -2 0 0 -4 -0 -11 4 6 -1 -1 -2 -2 5 -2 3 -1 10 10 11 12 6 -1 -1 -2 -2 -2 2 -3 1 -0 1 1 1 -1 -2 0 1 -3 0 -2 -4 -1 -2 1
0 0 -3 -1 -2 -5 2 3 3 -0 -2 -2 2 -3 2 -9 10 1 -5 -3 18 4 -0 -1 -9 -3 -2 -0 -0 3 3 -2 -1 -1 -1 -2 2 -2 -1 -3 -0 -2 -2 -1 -1
0 -2 1 0 1 3 -1 2 0 3 -3 -4 0 -1 2 -1 -2 -4 -4 7 11 5 -4 -0 -1 -4 -3 -2 -0 -1 -1 -4 -0 -2 -2 -2 -1 -5 -1 -2 -1 -0 -2 -2 -4
2 2 0 1 1 -1 1 2 1 0 -6 -0 1 2 -1 2 5 -3 -4 -5 10 6 -3 -4 -6 -4 -2 -3 -3 -4 -5 -4 -2 -3 -2 -4 -4 1 -1 0 1 -1 -2 -2 -3
-4 1 1 2 3 2 1 1 0 -0 -8 -6 -1 -2 3 1 -0 5 1 2 -0 -1 1 2 -2 -3 -3 -4 -4 -1 -2 -1 -1 -3 -4 -2 -2 7 1 -0 -0 -2 -6 -5 -2
0 -1 -0 -0 2 2 -1 -2 -3 4 -3 -3 -3 -1 -6 -1 -0 0 -4 -1 2 0 -0 2 1 0 -1 -2 -1 1 0 -1 -2 -5 -0 -1 -5 4 1 -2 -2 -1 -2 -0 -0
-1 2 4 -0 1 -1 1 3 4 -3 1 1 -1 -3 -1 -1 -2 0 2 0 -3 -2 -1 -1 -3 -1 1 1 1 1 2 -1 -2 1 -0 -1 -5 1 0 -1 -1 -4 -3 -2 -4
-1 -4 -3 1 3 2 -0 3 -2 2 -3 0 3 -2 1 -3 1 -1 -2 -1 -1 -1 -0 -2 1 3 1 0 1 0 -0 -2 -1 -2 -1 -2 3 -2 -4 -6 -7 -1 0 -2 -4
-2 -2 -1 -2 -3 -0 0 1 -0 -0 -1 0 -4 4 0 1 -1 -3 -1 -1 -2 -1 -2 -3 -3 -2 -3 -2 -2 -3 -3 -3 -2 -6 -2 -3 1 -4 -5 -4 -3 -4 -2 1 -0
-1 0 -1 -0 -1 -0 -3 2 2 2 0 -1 -2 -2 -4 1 -2 0 1 -0 -1 -2 -1 -2 -1 -2 -1 -1 -2 -1 -1 -2 -2 -5 -4 -2 3 -1 -6 1 -3 -4 -4 -1 4
-2 1 0 -0 -2 0 -1 -2 -5 1 1 2 1 -0 -1 0 -3 1 -1 -3 -4 -2 -1 -1 -0 -0 -1 -1 -1 -2 -1 -1 -3 -1 -2 -2 7 -4 -1 -4 -4 -0 0 0 0
-0 -1 1 3 1 -2 0 0 -0 -2 -4 0 1 3 1 -1 -1 2 -3 -2 -1 1 -0 -2 -1 -3 -3 -0 -0 -0 -1 -0 0 -1 4 -4 8 -3 -1 -5 -3 -2 4 2 1
-1 -1 -2 -0 1 1 0 1 -1 1 -1 0 -2 -3 -0 3 0 -2 -3 -0 -2 -3 -2 -2 1 2 0 -1 -3 -1 -1 -1 -2 -1 0 3 1 -1 -4 -3 4 0 1 1 -1
2 1 1 -2 -1 -1 -1 -1 0 0 3 -1 -1 -0 0 -3 -1 2 4 2 1 -0 -3 -6 -3 -3 -4 -3 1 0 0 -6 -4 1 -11 19 -5 1 -7 -0 -0 -2 3 2 2
-1 -2 -1 0 2 1 -0 -2 -2 -2 -1 0 1 1 2 -0 -0 -1 -2 -0 -2 -1 1 2 2 -2 -1 -3 -2 -3 -3 -3 -4 0 -1 -5 10 -13 -0 -1 -2 -1 3 -1 1
-2 -3 2 1 -3 1 1 2 1 -1 -2 -5 -3 -0 0 0 1 1 0 1 1 -2 -2 1 -3 -0 5 0 -9 -1 5 -1 4 0 -3 -3 -4 1 -1 0 2 2 2 2 -1
Height
5681 5668 5655 5644 5633 5624 5618 5615 5611 5609 5609 5612 5619 5625 5631 5635 5641 5650 5659 5668 5677 5692 5707 5722 5736 5749 5763 5774 5786 5797 5808 5814 5821 5827 5833 5838 5843 5847 5852 5857 5861 5864 5867 5871 5873
5685 5672 5661 5649 5638 5631 5624 5618 5615 5613 5611 5613 5620 5625 5630 5635 5642 5651 5660 5667 5677 5688 5706 5720 5733 5748 5759 5771 5783 5793 5803 5810 5818 5825 5830 5835 5841 5846 5851 5854 5858 5862 5866 5868 5871
5689 5676 5666 5655 5647 5637 5630 5626 5620 5615 5614 5615 5619 5624 5629 5634 5643 5651 5659 5666 5672 5685 5702 5717 5730 5745 5758 5769 5779 5790 5799 5807 5815 5822 5827 5833 5840 5843 5847 5853 5857 5860 5863 5866 5868
5692 5682 5672 5660 5651 5643 5635 5629 5623 5620 5616 5615 5619 5624 5628 5634 5642 5649 5658 5665 5672 5684 5699 5715 5728 5742 5755 5766 5778 5787 5796 5804 5812 5819 5825 5832 5838 5843 5848 5852 5855 5857 5860 5863 5866
5695 5685 5676 5665 5657 5648 5640 5632 5626 5622 5619 5618 5618 5623 5629 5635 5642 5649 5658 5667 5674 5683 5700 5716 5730 5742 5753 5765 5776 5784 5792 5801 5810 5817 5822 5828 5836 5841 5845 5848 5851 5855 5858 5860 5862
5697 5688 5679 5671 5663 5654 5647 5639 5631 5627 5622 5621 5621 5622 5625 5634 5641 5650 5661 5669 5676 5687 5703 5720 5732 5741 5754 5763 5774 5782 5790 5800 5808 5814 5819 5825 5831 5836 5842 5845 5848 5852 5855 5857 5858
5700 5692 5682 5673 5666 5659 5650 5645 5637 5633 5629 5627 5626 5625 5628 5634 5642 5651 5662 5671 5681 5694 5707 5717 5731 5743 5754 5764 5771 5779 5788 5798 5804 5811 5817 5822 5828 5834 5838 5842 5845 5848 5851 5853 5853
5704 5696 5688 5680 5671 5664 5657 5648 5643 5638 5634 5633 5633 5635 5636 5636 5643 5652 5663 5673 5681 5693 5707 5721 5733 5743 5754 5764 5771 5778 5787 5795 5801 5807 5814 5819 5825 5830 5834 5839 5842 5844 5846 5848 5848
5709 5701 5693 5686 5678 5670 5663 5657 5651 5645 5641 5640 5639 5641 5644 5647 5649 5658 5667 5676 5687 5697 5710 5722 5734 5745 5754 5763 5772 5779 5786 5794 5800 5805 5811 5817 5822 5827 5830 5834 5837 5839 5841 5842 5842
5714 5706 5699 5690 5683 5676 5670 5666 5660 5655 5651 5649 5647 5650 5651 5655 5660 5663 5671 5681 5692 5701 5714 5726 5738 5749 5755 5763 5772 5781 5788 5794 5799 5805 5809 5814 5818 5823 5826 5830 5832 5835 5836 5837 5837
5720 5712 5705 5698 5692 5686 5678 5675 5673 5667 5664 5659 5657 5658 5658 5664 5669 5672 5679 5689 5700 5711 5723 5733 5742 5749 5758 5766 5774 5781 5788 5794 5799 5804 5808 5812 5816 5820 5823 5826 5827 5828 5829 5830 5830
5727 5718 5711 5705 5699 5693 5687 5684 5681 5678 5675 5670 5669 5670 5671 5675 5679 5685 5691 5701 5705 5716 5727 5739 5746 5754 5762 5769 5776 5783 5789 5793 5799 5802 5806 5810 5814 5816 5818 5821 5822 5823 5823 5823 5823
5734 5725 5717 5710 5706 5701 5696 5693 5690 5687 5685 5681 5682 5680 5683 5685 5690 5695 5701 5707 5710 5723 5733 5744 5753 5759 5766 5772 5778 5784 5788 5792 5797 5800 5804 5808 5811 5812 5814 5815 5817 5817 5816 5816 5816
5738 5732 5723 5717 5714 5709 5704 5700 5698 5696 5693 5693 5692 5692 5693 5695 5700 5704 5709 5717 5723 5731 5739 5748 5756 5762 5768 5774 5779 5784 5787 5792 5796 5799 5802 5804 5808 5807 5808 5809 5810 5810 5810 5810 5809
5742 5738 5731 5724 5719 5715 5712 5707 5705 5703 5702 5703 5703 5704 5704 5708 5711 5714 5718 5723 5731 5738 5746 5753 5758 5764 5769 5774 5779 5784 5787 5791 5793 5795 5797 5800 5802 5802 5802 5802 5802 5802 5802 5802 5803
5745 5742 5738 5731 5726 5721 5717 5715 5713 5712 5709 5710 5711 5712 5715 5716 5720 5722 5726 5732 5737 5742 5748 5754 5760 5765 5769 5774 5777 5781 5784 5787 5789 5790 5792 5794 5795 5796 5796 5795 5795 5795 5794 5795 5794
5751 5745 5742 5736 5733 5728 5724 5721 5721 5717 5717 5718 5718 5719 5721 5724 5727 5730 5734 5737 5741 5746 5751 5755 5759 5764 5768 5772 5775 5778 5781 5783 5785 5786 5788 5788 5789 5788 5787 5788 5789 5789 5788 5787 5786
5757 5751 5748 5742 5739 5735 5731 5729 5727 5724 5723 5723 5724 5725 5727 5729 5732 5735 5738 5741 5746 5749 5753 5758 5762 5764 5768 5771 5773 5775 5777 5778 5779 5781 5782 5782 5782 5780 5780 5780 5780 5782 5781 5779 5779
5760 5755 5750 5747 5744 5741 5739 5737 5732 5730 5730 5729 5730 5732 5733 5735 5737 5739 5742 5745 5748 5751 5755 5757 5760 5763 5766 5768 5771 5772 5774 5775 5775 5775 5776 5776 5777 5774 5773 5773 5773 5773 5772 5772 5771
5762 5758 5754 5751 5748 5745 5744 5741 5739 5737 5734 5735 5735 5736 5737 5739 5741 5742 5744 5747 5749 5752 5754 5757 5760 5762 5764 5766 5768 5769 5770 5770 5770 5769 5769 5770 5769 5766 5766 5766 5765 5766 5765 5763 5761
5764 5761 5757 5754 5751 5750 5747 5746 5744 5742 5741 5740 5739 5740 5740 5742 5744 5745 5748 5749 5749 5750 5752 5754 5757 5759 5760 5761 5762 5764 5764 5764 5764 5763 5762 5762 5761 5757 5758 5756 5756 5755 5755 5754 5752
5765 5764 5760 5756 5754 5751 5750 5749 5749 5747 5746 5745 5744 5743 5743 5744 5745 5745 5748 5749 5750 5751 5752 5752 5753 5754 5755 5756 5756 5757 5757 5756 5755 5756 5754 5752 5754 5748 5747 5746 5746 5746 5745 5743 5742
5767 5764 5761 5758 5756 5755 5752 5750 5748 5749 5749 5749 5747 5747 5745 5746 5747 5747 5747 5746 5747 5748 5750 5751 5751 5751 5751 5751 5750 5749 5748 5747 5746 5746 5746 5744 5746 5741 5740 5740 5739 5738 5738 5737 5735
5766 5765 5763 5760 5757 5755 5753 5753 5751 5748 5748 5748 5749 5750 5750 5748 5746 5746 5746 5747 5747 5747 5746 5745 5746 5747 5748 5747 5746 5745 5743 5742 5740 5740 5740 5740 5739 5737 5735 5734 5734 5734 5732 5731 5730
5765 5763 5762 5761 5759 5757 5754 5751 5751 5750 5748 5747 5746 5746 5746 5747 5749 5749 5748 5747 5746 5746 5745 5745 5744 5743 5742 5742 5741 5740 5739 5738 5737 5737 5736 5736 5734 5731 5729 5728 5727 5725 5724 5724 5722
5764 5763 5761 5759 5757 5756 5756 5753 5750 5749 5748 5746 5745 5744 5744 5743 5743 5743 5743 5744 5744 5744 5743 5742 5741 5738 5737 5734 5734 5734 5734 5732 5730 5730 5728 5726 5729 5722 5722 5720 5719 5718 5717 5715 5714
5758 5758 5757 5756 5755 5753 5752 5751 5750 5749 5746 5745 5743 5742 5741 5741 5740 5739 5738 5738 5737 5736 5737 5737 5735 5734 5733 5727 5726 5727 5726 5722 5722 5720 5720 5719 5717 5715 5714 5712 5711 5711 5709 5707 5705